User: anonymous   Login
Location: Owatonna
(44.0840°N, 93.2260°W)
Time: 06:42:48
(UTC-05:00)
Language:

Cosmos 1500 Rocket - Orbit

View from above orbital plane
View from above orbital plane
View from above satellite
View from above satellite

Ground track
Ground track

The orbit data is extracted from the following two-line orbital elements,

1 14373U 83099B   18108.80020572  .00000077  00000-0  63745-5 0  9993
2 14373  82.5390 318.9400 0018857 300.5767 106.8550 14.83719951866192
Epoch (UTC): 18 April 2018 19:12:17
Eccentricity: 0.0018857
inclination: 82.5390°
perigee height: 604 km
apogee height: 631 km
right ascension of ascending node: 318.9400°
argument of perigee: 300.5767°
revolutions per day: 14.83719951
mean anomaly at epoch: 106.8550°
orbit number at epoch: 86619

The dashed part of the orbit path shows where the satellite is in the earth's shadow,  

DLR